890  
ASUS46 KSTO 220115  
RWRCA  
 
NORTHERN AND CENTRAL CA REGIONAL WEATHER ROUNDUP  
NATIONAL WEATHER SERVICE SACRAMENTO CA  
600 PM PDT MON AUG 21 2017  
 
NOTE: FAIR INDICATES FEW OR NO CLOUDS BELOW 12,000 FEET WITH NO  
SIGNIFICANT WEATHER AND/OR S TO VISIBILITY
.  
 
CAZ001-003-220200-  
NORTHWEST AREA  
 
CITY SKY/WX TMP DP RH WIND PRES REMARKS
 
CRESCENT CITY CLOUDY 57 54 89 S8 30.03S  
UKIAH SUNNY 78 57 48 S9G17 29.95R  

 
 
CAZ006-505>513-220200-  
BAY AREA  
 
CITY SKY/WX TMP DP RH WIND PRES REMARKS
 
SANTA ROSA MOSUNNY 67 56 67 S10 30.01R  
SAN RAFAEL N/A 70 MM MM MISG  
NAPA SUNNY 71 59 65 S17 29.98R  
CONCORD SUNNY 72 58 61 SW14 29.99R  
OAKLAND CITY N/A MM MM MM MISG  
OAKLAND MOSUNNY 67 59 75 NW15 30.01S  
SAN FRAN CITY N/A 65 MM 75 MISG  
SAN FRAN ARPT PTSUNNY 70 56 61 W10 30.00S  
LIVERMORE MOSUNNY 75 58 55 W15 29.97R  
HAYWARD SUNNY 71 55 56 NW14 30.00S  
REDWOOD CITY N/A 75 MM 59 MISG  
MOFFETT ARPT MOSUNNY 72 61 68 N17 30.00R  
SAN JOSE ARPT PTSUNNY 75 60 59 W13 29.98R  

 
CAZ034-037-514>518-220200-  
CENTRAL COAST  
 
CITY SKY/WX TMP DP RH WIND PRES REMARKS
 
WATSONVILLE PTSUNNY 67 58 72 SW9 30.02F  
SALINAS MOSUNNY 69 57 65 W13 30.00S  
MONTEREY MOSUNNY 68 58 70 NW9 30.02S  
SAN LUIS OBISP SUNNY 73 58 59 NW14 29.98S  
SANTA MARIA SUNNY 71 59 65 NW13 29.99S  

 
CAZ015-016-220200-  
NORTHERN SACRAMENTO VALLEY  
 
CITY SKY/WX TMP DP RH WIND PRES REMARKS
 
REDDING MOSUNNY 92 60 34 S12 29.87S HX 91  
RED BLUFF SUNNY 90 62 39 S15 29.89S HX 90  
OROVILLE PTSUNNY 86 61 42 S14 29.92S  

 
CAZ016>018-220200-  
SOUTHERN SACRAMENTO VALLEY  
 
CITY SKY/WX TMP DP RH WIND PRES REMARKS
 
AUBURN PTSUNNY 82 73 74 SW6 30.00S  
BEALE AFB SUNNY 85 61 43 S10 29.90F  
LINCOLN FAIR 88 54 31 SE9 29.92S  
MARYSVILLE MOSUNNY 87 61 41 S12 29.91F  
SAC INTL ARPT PTSUNNY 83 59 44 S14 29.91F  
MATHER AIRPORT PTSUNNY 81 57 44 S6 29.94  
DOWNTOWN SAC N/A 79 MM MM MISG  
SAC EXEC ARPT PTSUNNY 78 60 53 S5 29.94S  
VACAVILLE MOSUNNY 84 59 42 S12 29.92S  
TRAVIS AFB MOSUNNY 76 58 54 SW25 29.92R  

 
CAZ019>021-220200-  
SAN JOAQUIN VALLEY  
 
CITY SKY/WX TMP DP RH WIND PRES REMARKS
 
STOCKTON PTSUNNY 81 60 48 NW12 29.94S  
MODESTO CLOUDY 85 59 41 NW15 29.90S  
MERCED MOSUNNY 85 56 37 NW15 29.90S  
LEMOORE MOSUNNY 94 58 29 NW15 29.88F HX 93  
FRESNO MOSUNNY 90 59 35 W13 29.88S  
HANFORD SUNNY 91 58 32 NW12 29.88F HX 90  
PORTERVILLE N/A 92 63 38 NW9 29.88F HX 93  
BAKERSFIELD SUNNY 93 60 33 NW13 29.87S HX 93  

 
CAZ011-012-071-220200-  
NORTHERN MOUNTAINS  
 
CITY SKY/WX TMP DP RH WIND PRES REMARKS
 
YREKA SUNNY 95 39 14 W5 29.94F HX 91  
MOUNT SHASTA SUNNY 87 49 26 CALM 30.02S  
ALTURAS SUNNY 92 31 11 VRB5 30.06F  

 
CAZ011-012-071-220200-  
SIERRA NEVADA MTNS  
 
CITY SKY/WX TMP DP RH WIND PRES REMARKS
 
BLUE CANYON PTSUNNY 70 50 49 S6 30.25R  
TRUCKEE PTSUNNY 72 54 53 W14G22 30.22R  
TAHOE VLY ARPT PTSUNNY 65 47 52 S7 30.28S  
MAMMOTH LAKES FAIR 73 34 23 SE10 30.31F  

 
 
 
CLICK HERE TO GO TO PREVIOUS BULLETINS.

The Nexlab CA Page Main Text Page